This demonstration page uses our WeatherBlox Daily Observations layout. Learn more.

40.92945, -100.16068

Hourly Observations for February 7, 2019

Temp ( °F °C ) Dew Point ( °F °C ) Humidity (%) Winds ( mph kmh ) Pressure ( in mb ) Visibility ( mi km ) Precip ( " mm )
12:15 am 00:15 Windy with Snow Likely 6 -14.7 -2 -18.9 71 71 NNW 20 31 30.31 1026 3 4.82802 0 0
12:35 am 00:35 Windy with Snow Likely 5 -15.2 -2 -19 73 73 NNW 22 35 30.3 1026 2 3.21868 0 0
12:55 am 00:55 Mostly Cloudy 4 -15.5 -3 -19.5 72 72 NNW 18 30 30.3 1026 7 11.26538 0 0
1:15 am 01:15 Mostly Cloudy 5 -15.2 -3 -19.4 71 71 NNW 17 28 30.33 1027 10 16.0934 0 0
1:35 am 01:35 Cloudy 5 -15.2 -4 -19.9 68 68 NNW 18 30 30.32 1027 10 16.0934 0 0
1:55 am 01:55 Cloudy 5 -15.2 -4 -19.8 68 68 NNW 17 28 30.33 1027 10 16.0934 0 0
2:10 am 02:10 Cloudy 5 -15.2 -4 -19.9 68 68 NNW 20 31 30.32 1027 10 16.0934 0 0
2:35 am 02:35 Cloudy 5 -15.2 -4 -20 67 67 NNW 18 30 30.32 1027 10 16.0934 0 0
2:55 am 02:55 Cloudy 4 -15.3 -4 -20 68 68 NNW 22 35 30.33 1027 10 16.0934 0 0
3:15 am 03:15 Windy with Snow Likely 4 -15.5 -4 -20.1 68 68 NNW 22 35 30.32 1027 7 11.26538 0 0
3:35 am 03:35 Windy with Snow Likely 3 -16 -6 -21 66 66 NNW 21 33 30.33 1027 5 8.0467 0 0
3:55 am 03:55 Cloudy with Light Snow 3 -16 -5 -20.7 67 67 NNW 18 30 30.34 1027 10 16.0934 0 0
4:15 am 04:15 Windy with Snow Likely 3 -16.2 -5 -20.7 68 68 NNW 21 33 30.34 1027 7 11.26538 0 0
4:35 am 04:35 Cloudy 3 -16.3 -6 -21.1 67 67 NNW 24 39 30.35 1028 10 16.0934 0 0
4:55 am 04:55 Cloudy 3 -16.2 -5 -20.6 69 69 NNW 22 35 30.35 1028 10 16.0934 0 0
5:15 am 05:15 Cloudy with Light Snow 2 -16.5 -6 -21.1 68 68 NNW 18 30 30.36 1028 7 11.26538 0 0
5:35 am 05:35 Windy with Snow Likely 2 -16.6 -4 -20.1 75 75 NNW 22 35 30.38 1029 1.75 2.816345 0 0
5:55 am 05:55 Cloudy with Light Snow 2 -16.6 -4 -20 75 75 NNW 14 22 30.38 1029 1.75 2.816345 0 0
6:15 am 06:15 Windy with Snow Likely 2 -16.6 -4 -20.2 74 74 NW 22 35 30.4 1030 2.5 4.02335 0 0
6:35 am 06:35 Cloudy with Light Snow 2 -16.5 -5 -20.3 73 73 NW 18 30 30.41 1030 4 6.43736 0 0
6:55 am 06:55 Cloudy 2 -16.5 -6 -21 68 68 NNW 24 39 30.41 1030 7 11.26538 0 0
7:15 am 07:15 Cloudy 2 -16.7 -6 -21.2 68 68 NNW 16 26 30.42 1030 10 16.0934 0 0
7:35 am 07:35 Mostly Cloudy 2 -16.8 -7 -21.7 66 66 NNW 18 30 30.43 1030 10 16.0934 0 0
7:55 am 07:55 Mostly Cloudy 1 -17 -8 -22 65 65 NW 18 30 30.44 1031 10 16.0934 0 0
8:15 am 08:15 Sunny 1 -17 -8 -22.1 65 65 NNW 20 31 30.45 1031 10 16.0934 0 0
8:35 am 08:35 Sunny 2 -16.7 -8 -22 64 64 NNW 16 26 30.46 1031 10 16.0934 0 0
8:55 am 08:55 Sunny 2 -16.5 -7 -21.7 64 64 NNW 15 24 30.44 1031 10 16.0934 0 0
9:15 am 09:15 Sunny 3 -16 -7 -21.6 62 62 NNW 29 46 30.45 1031 7 11.26538 0 0
9:35 am 09:35 Sunny 3 -16 -7 -21.8 61 61 NNW 23 37 30.45 1031 7 11.26538 0 0
9:55 am 09:55 Sunny 4 -15.4 -6 -21.1 62 62 NW 23 37 30.44 1031 7 11.26538 0 0
10:15 am 10:15 Partly Cloudy 5 -15.2 -6 -21.1 61 61 NW 24 39 30.44 1031 7 11.26538 0 0
10:35 am 10:35 Partly Cloudy 5 -15 -6 -21.2 59 59 NW 23 37 30.44 1031 10 16.0934 0 0
10:55 am 10:55 Sunny 6 -14.3 -5 -20.7 59 59 NW 24 39 30.44 1031 7 11.26538 0 0
11:15 am 11:15 Sunny 7 -14 -5 -20.4 59 59 NW 28 44 30.45 1031 10 16.0934 0 0
11:35 am 11:35 Sunny 7 -13.7 -5 -20.3 58 58 NW 21 33 30.45 1031 10 16.0934 0 0
11:55 am 11:55 Partly Cloudy 8 -13.3 -4 -20.1 57 57 NW 25 41 30.45 1031 10 16.0934 0 0
12:15 pm 12:15 Partly Cloudy 8 -13.3 -5 -20.5 55 55 NW 28 44 30.45 1031 10 16.0934 0 0
12:35 pm 12:35 Sunny 9 -12.9 -4 -20.1 55 55 NW 24 39 30.44 1031 10 16.0934 0 0
12:55 pm 12:55 Sunny 9 -12.6 -4 -19.8 55 55 NW 21 33 30.44 1031 10 16.0934 0 0
1:15 pm 13:15 Partly Cloudy 10 -12.4 -4 -20 53 53 WNW 29 46 30.45 1031 10 16.0934 0 0
1:35 pm 13:35 Partly Cloudy 10 -12.1 -3 -19.5 54 54 NW 26 43 30.44 1031 10 16.0934 0 0
1:55 pm 13:55 Partly Cloudy 10 -12.1 -3 -19.6 54 54 NW 28 44 30.44 1031 10 16.0934 0 0
2:15 pm 14:15 Mostly Cloudy 10 -12.2 -4 -19.8 53 53 NW 25 41 30.45 1031 10 16.0934 0 0
2:35 pm 14:35 Mostly Cloudy 11 -11.8 -3 -19.7 52 52 NNW 22 35 30.44 1031 10 16.0934 0 0
2:55 pm 14:55 Mostly Cloudy 11 -11.6 -3 -19.7 51 51 NNW 22 35 30.44 1031 10 16.0934 0 0
3:15 pm 15:15 Partly Cloudy 11 -11.5 -3 -19.7 51 51 NW 22 35 30.44 1031 10 16.0934 0 0
3:35 pm 15:35 Sunny 12 -11.3 -3 -19.3 52 52 NW 18 30 30.44 1031 10 16.0934 0 0
3:55 pm 15:55 Sunny 11 -11.5 -3 -19.7 51 51 NNW 21 33 30.45 1031 10 16.0934 0 0
4:15 pm 16:15 Sunny 11 -11.5 -4 -20 50 50 NNW 23 37 30.46 1031 10 16.0934 0 0
4:35 pm 16:35 Sunny 11 -11.6 -4 -20.2 49 49 NW 20 31 30.48 1032 10 16.0934 0 0
4:55 pm 16:55 Sunny 11 -11.7 -4 -19.9 51 51 NNW 17 28 30.49 1033 10 16.0934 0 0
5:15 pm 17:15 Sunny 10 -12 -4 -20.1 51 51 NNW 17 28 30.49 1033 10 16.0934 0 0
5:35 pm 17:35 Sunny 10 -12.3 -4 -20.1 53 53 NNW 16 26 30.51 1033 10 16.0934 0 0
6:15 pm 18:15 Clear 7 -13.7 -5 -20.3 58 58 NNW 13 20 30.52 1034 10 16.0934 0 0
6:35 pm 18:35 Clear 7 -14.1 -5 -20.5 59 59 NNW 9 15 30.55 1034 10 16.0934 0 0
6:55 pm 18:55 Clear 5 -14.9 -6 -20.9 61 61 NNW 8 13 30.57 1035 10 16.0934 0 0
7:15 pm 19:15 Clear 3 -16 -7 -21.4 63 63 NNW 7 11 30.59 1036 10 16.0934 0 0
7:35 pm 19:35 Clear 1 -17 -8 -22 65 65 NNW 7 11 30.61 1037 10 16.0934 0 0
7:55 pm 19:55 Clear 0 -17.7 -8 -22.4 67 67 NW 3 6 30.63 1037 10 16.0934 0 0
8:15 pm 20:15 Clear -1 -18.1 -9 -22.5 69 69 WNW 6 9 30.64 1038 10 16.0934 0 0
8:35 pm 20:35 Clear -2 -19 -9 -23 71 71 W 7 11 30.66 1038 10 16.0934 0 0
8:55 pm 20:55 Clear -3 -19.5 -10 -23.2 73 73 W 8 13 30.67 1039 10 16.0934 0 0
9:15 pm 21:15 Clear -1 -18.5 -9 -22.5 71 71 W 5 7 30.67 1039 10 16.0934 0 0
9:35 pm 21:35 Clear -2 -18.8 -9 -22.7 72 72 WSW 6 9 30.68 1039 10 16.0934 0 0
9:55 pm 21:55 Clear -2 -18.8 -9 -22.6 72 72 NW 6 9 30.67 1039 10 16.0934 0 0
10:15 pm 22:15 Clear -3 -19.4 -10 -23.2 72 72 W 7 11 30.69 1039 10 16.0934 0 0
10:35 pm 22:35 Clear -4 -20 -11 -23.9 71 71 WNW 7 11 30.71 1040 10 16.0934 0 0
10:55 pm 22:55 Clear -4 -19.8 -11 -23.9 70 70 NW 7 11 30.7 1040 10 16.0934 0 0
11:15 pm 23:15 Clear -5 -20.6 -12 -24.2 73 73 W 3 6 30.72 1040 10 16.0934 0 0
11:35 pm 23:35 Clear -4 -20.1 -11 -23.8 73 73 Calm 30.73 1041 10 16.0934 0 0
11:55 pm 23:55 Clear -5 -20.5 -12 -24.2 72 72 Calm 30.73 1041 10 16.0934 0 0

Powered by AerisWeather